Weather History for KBPI - February, 2014

Change the Weather History Date:

Sunday, February 2, 2014

  Actual Average Record
Temperature  
Mean Temperature 2 °F 11 °F  
Max Temperature 20 °F 26 °F 41 °F (2015)
Min Temperature -17 °F -3 °F -34 °F (2011)
Degree Days  
Heating Degree Days 63 54  
Month to date heating degree days 123 108  
Since 1 July heating degree days 5726 6221  
Cooling Degree Days 0 0  
Month to date cooling degree days 0 0  
Year to date cooling degree days 0 0  
Moisture  
Dew Point -6 °F    
Average Humidity 70    
Maximum Humidity 91    
Minimum Humidity 49    
Precipitation  
Precipitation 0.00 in 0.01 in 0.46 in (2003)
Month to date precipitation T 0.02  
Year to date precipitation 0.02 0.33  
Sea Level Pressure  
Sea Level Pressure 30.18 in    
Wind  
Wind Speed 3 mph (ENE)    
Max Wind Speed 8 mph    
Max Gust Speed 9 mph    
Visibility 10 miles    
Events      
T = Trace of Precipitation, MM = Missing Value Source: NWS Daily Summary

Daily Weather History Graph

Daily Weather History Graph

Search for Another Location

Airport or City:

Trip Planner

Search our weather history database for the weather conditions in past years. The results will help you decide how hot, cold, wet, or windy it might be!

Date:

Astronomy

Feb. 02, 2014 Rise Set
Actual Time 7:33 AM MST 5:35 PM MST
Civil Twilight 7:03 AM MST 6:05 PM MST
Nautical Twilight 6:29 AM MST 6:39 PM MST
Astronomical Twilight 5:56 AM MST 7:12 PM MST
Moon 8:56 AM MST (2/2) 9:29 PM MST (2/2)
Length of Visible Light 11h 01m
Length of Day
10h 02m
Waxing Crescent, 12% of the Moon is Illuminated
Feb 2
Waxing Crescent
Feb 6
First Quarter
Feb 14
Full
Feb 22
Last Quarter
Mar 1
New

Hourly Weather History & Observations

Time (MST) Temp. Windchill Dew Point Humidity Pressure Visibility Wind Dir Wind Speed Gust Speed Precip Events Conditions
12:53 AM -11.0 °F -20.4 °F -15.0 °F 83% 30.25 in 10.0 mi NE 3.5 mph - N/A   Clear
1:53 AM -11.0 °F -26.2 °F -16.1 °F 78% 30.24 in 10.0 mi ENE 6.9 mph - N/A   Clear
2:53 AM -9.9 °F -21.5 °F -15.0 °F 78% 30.22 in 10.0 mi WSW 4.6 mph - N/A   Clear
3:53 AM -11.0 °F - -15.0 °F 83% 30.22 in 10.0 mi Calm Calm - N/A   Clear
4:53 AM -14.1 °F -26.3 °F -17.0 °F 87% 30.26 in 10.0 mi ENE 4.6 mph - N/A   Clear
5:53 AM -16.1 °F -26.2 °F -20.0 °F 82% 30.31 in 10.0 mi East 3.5 mph - N/A   Clear
6:53 AM -16.1 °F -26.2 °F -20.9 °F 79% 30.32 in 10.0 mi South 3.5 mph - N/A   Clear
7:53 AM -11.0 °F - -16.1 °F 78% 30.33 in 10.0 mi Calm Calm - N/A   Clear
8:53 AM -11.0 °F -22.8 °F -16.1 °F 78% 30.35 in 10.0 mi East 4.6 mph - N/A   Clear
9:11 AM -9.0 °F -22.3 °F -14.1 °F 79% 29.98 in 5.0 mi East 5.8 mph - N/A   Haze
9:53 AM -2.0 °F - -7.1 °F 79% 30.31 in 10.0 mi Calm Calm - N/A   Clear
10:53 AM 1.9 °F - -2.0 °F 83% 30.31 in 10.0 mi Calm Calm - N/A   Clear
11:53 AM 5.0 °F -2.1 °F -2.0 °F 73% 30.26 in 10.0 mi East 3.5 mph - N/A   Clear
12:53 PM 9.0 °F 2.4 °F 1.0 °F 70% 30.22 in 10.0 mi East 3.5 mph - N/A   Clear
1:53 PM 17.1 °F - 5.0 °F 59% 30.14 in 10.0 mi Calm Calm - N/A   Clear
2:53 PM 19.0 °F - 3.9 °F 52% 30.10 in 10.0 mi Calm Calm - N/A   Clear
3:53 PM 19.0 °F 13.9 °F 3.9 °F 52% 30.12 in 10.0 mi ENE 3.5 mph - N/A   Clear
4:53 PM 15.1 °F 7.7 °F 3.9 °F 61% 30.14 in 10.0 mi East 4.6 mph - N/A   Overcast
5:51 PM 12.2 °F 1.7 °F 3.2 °F 67% 29.85 in 10.0 mi NE 6.9 mph - N/A   Overcast
5:53 PM 10.9 °F 0.2 °F 3.0 °F 70% 30.17 in 10.0 mi NE 6.9 mph - N/A   Overcast
6:04 PM 10.9 °F 0.2 °F 1.9 °F 67% 29.85 in 10.0 mi NNE 6.9 mph - N/A   Overcast
6:53 PM 9.0 °F 2.4 °F 1.9 °F 73% 30.18 in 10.0 mi East 3.5 mph - N/A   Overcast
7:53 PM 8.1 °F -2.0 °F 1.9 °F 76% 30.14 in 10.0 mi NNW 5.8 mph - N/A   Mostly Cloudy
8:53 PM 3.9 °F - -0.9 °F 80% 30.17 in 10.0 mi Calm Calm - N/A   Clear
9:53 PM -0.0 °F - -2.0 °F 91% 30.15 in 10.0 mi Calm Calm - N/A   Clear
10:53 PM -4.0 °F -12.4 °F -8.0 °F 83% 30.15 in 10.0 mi NE 3.5 mph - N/A   Clear
11:53 PM -4.0 °F - -9.0 °F 79% 30.13 in 10.0 mi Calm Calm - N/A   Mostly Cloudy